Flag for Norway Weather past 2 weeks in Melhus, Norway

Now
59 °F

Passing clouds.


Feels Like: 59 °F
Forecast: 55 / 62 °F
Wind: 5 mph from East

Location: Trondheim / Vaernes

Current Time: Jul 31, 2014 at 9:26:21 AM

Latest Report: Jul 31, 2014 at 8:50 AM


Visibility: N/A

Pressure: 29.50 "Hg

Humidity: 82%

Dew point: 54 °F

Location of MelhusLocation

Historic Weather in Melhus — Graph

°F

Melhus temperature yesterday

Maximum temperature yesterday: 68 °F (at 1:50 PM)
Minimum temperature yesterday: 57 °F (at 4:50 PM)
Average temperature yesterday: 62 °F

Past Weeks' High & Low Weather Summary

 TemperatureHumidityPressure
High88 °F (Jul 21, 5:50 PM)100% (Jul 19, 12:50 AM)30.36 "Hg (Jul 19, 12:50 AM)
Low52 °F (Jul 31, 6:20 AM)28% (Jul 20, 12:50 PM)29.50 "Hg (Jul 31, 3:50 AM)
Average67 °F72%30.05 "Hg
* Reported Jul 16 8:50 AM — Jul 31 8:20 AM, Melhus, Weather by CustomWeather, © 2014

Note: Actual official high and low records may vary slightly from our data, if they occured in-between our weather recording intervals... More about our weather records

Advertising

Melhus weather history for previous 24 hours

 ConditionsComfort  
Time TempWeatherWind HumidityBarometerVisibility
8:20 AM
Jul 31
57 °FPassing clouds.6 mph88%29.50 "HgN/A
7:50 AM57 °FScattered clouds.6 mph88%29.50 "HgN/A
7:20 AM55 °FScattered clouds.7 mph94%29.50 "HgN/A
6:50 AM54 °FScattered clouds.6 mph94%29.50 "HgN/A
6:20 AM52 °FBroken clouds.5 mph94%29.50 "HgN/A
5:50 AM54 °FBroken clouds.7 mph94%29.50 "HgN/A
5:20 AM54 °FPassing clouds.7 mph94%29.50 "HgN/A
4:50 AM54 °FPassing clouds.7 mph94%29.50 "HgN/A
3:50 AM54 °FPartly cloudy.7 mph94%29.50 "HgN/A
2:50 AM54 °FPassing clouds.8 mph100%29.53 "HgN/A
2:20 AM55 °FPassing clouds.8 mph94%29.53 "HgN/A
1:50 AM55 °FPassing clouds.9 mph94%29.56 "HgN/A
1:20 AM55 °FPassing clouds.8 mph100%29.56 "HgN/A
12:50 AM57 °FPassing clouds.7 mph94%29.56 "HgN/A
12:20 AM57 °FPartly cloudy.3 mph94%29.59 "HgN/A
11:50 PM
Jul 30
57 °FPassing clouds.3 mph94%29.59 "HgN/A
11:20 PM57 °FBroken clouds.3 mph94%29.59 "HgN/A
10:50 PM57 °FScattered clouds.3 mph88%29.59 "HgN/A
10:20 PM59 °FScattered clouds.5 mph88%29.59 "HgN/A
9:50 PM61 °FPassing clouds.5 mph83%29.59 "HgN/A
9:20 PM61 °FPassing clouds.6 mph83%29.59 "HgN/A
8:50 PM61 °FPassing clouds.6 mph83%29.59 "HgN/A
8:20 PM61 °FScattered clouds.3 mph83%29.59 "HgN/A
7:50 PM61 °FScattered clouds.3 mph77%29.59 "HgN/A
7:20 PM61 °FScattered clouds.5 mph83%29.62 "HgN/A
6:50 PM61 °FPartly sunny.2 mph83%29.62 "HgN/A
6:20 PM59 °FPartly sunny.6 mph94%29.62 "HgN/A
5:50 PM59 °FBroken clouds.2 mph88%29.62 "HgN/A
5:20 PM59 °FBroken clouds.7 mph88%29.59 "Hg4 mi
4:50 PM57 °FRain. Broken clouds.21 mph94%29.62 "Hg4 mi
4:20 PM61 °FRain. Cloudy.36 mph88%29.59 "HgN/A
3:50 PM64 °FSprinkles. Partly sunny.22 mph83%29.56 "HgN/A
3:20 PM64 °FBroken clouds.17 mph83%29.56 "HgN/A
2:50 PM66 °FBroken clouds.17 mph83%29.56 "HgN/A
2:20 PM68 °FBroken clouds.14 mph73%29.56 "HgN/A
1:50 PM68 °FBroken clouds.9 mph78%29.56 "HgN/A
1:20 PM66 °FBroken clouds.8 mph83%29.56 "HgN/A
12:50 PM66 °FBroken clouds.9 mph83%29.56 "HgN/A
12:20 PM66 °FPartly sunny.8 mph83%29.56 "HgN/A
11:50 AM66 °FPartly sunny.9 mph83%29.59 "HgN/A
11:20 AM66 °FBroken clouds.8 mph83%29.59 "HgN/A
10:50 AM64 °FScattered showers. Scattered clouds.10 mph88%29.59 "HgN/A
10:20 AM64 °FScattered clouds.8 mph88%29.59 "HgN/A
9:50 AM64 °FScattered clouds.3 mph88%29.59 "HgN/A
9:20 AM63 °FPartly sunny.1 mph88%29.59 "HgN/A
Weather by CustomWeather, © 2014

See weather overviewHow to use our weather pages